This demonstration page uses our WeatherBlox Daily Observations layout. Learn more.

Left ArrowRight Arrow

38.80484, -77.04692

Hourly Observations for May 26, 2015

Temp ( °F °C ) Dew Point ( °F °C ) Humidity (%) Winds ( mph kmh ) Pressure ( in mb ) Visibility ( mi km ) Precip ( " mm )
12:52 am 00:52 Mostly Cloudy 72 22.2 62 16.7 71 71 S 10 17 30.20 1023 10 16 0.00 0.00
1:52 am 01:52 Mostly Cloudy 71 21.7 60 15.6 68 68 SSW 10 17 30.20 1023 10 16 0.00 0.00
2:52 am 02:52 Mostly Clear 70 21.1 59 15 68 68 S 10 17 30.20 1023 10 16 0.00 0.00
3:52 am 03:52 Mostly Clear 70 21.1 59 15 68 68 S 13 20 30.20 1023 10 16 0.00 0.00
4:52 am 04:52 Partly Cloudy 69 20.6 59 15 70 70 S 10 17 30.21 1023 10 16 0.00 0.00
5:52 am 05:52 Mostly Cloudy 69 20.6 60 15.6 73 73 S 13 20 30.21 1023 10 16 0.00 0.00
6:52 am 06:52 Mostly Cloudy 70 21.1 61 16.1 73 73 SSW 10 17 30.23 1024 10 16 0.00 0.00
7:52 am 07:52 Mostly Cloudy 72 22.2 61 16.1 68 68 SSW 9 15 30.24 1024 10 16 0.00 0.00
8:52 am 08:52 Mostly Cloudy 75 23.9 63 17.2 66 66 SSW 10 17 30.23 1024 10 16 0.00 0.00
9:52 am 09:52 Mostly Cloudy 78 25.6 63 17.2 60 60 SW 10 17 30.24 1024 10 16 0.00 0.00
10:52 am 10:52 Cloudy 80 26.7 65 18.3 60 60 S 12 19 30.23 1024 10 16 0.00 0.00
11:52 am 11:52 Cloudy 82 27.8 67 19.4 60 60 S 13 20 30.22 1023 10 16 0.00 0.00
12:52 pm 12:52 Cloudy 85 29.4 67 19.4 55 55 S 13 20 30.21 1023 10 16 0.00 0.00
1:52 pm 13:52 Cloudy 86 30 68 20 55 55 S 16 26 30.20 1023 10 16 0.00 0.00
2:52 pm 14:52 Cloudy 87 30.6 68 20 53 53 S 14 22 30.18 1022 10 16 0.00 0.00
3:52 pm 15:52 Cloudy 87 30.6 66 18.9 50 50 S 15 24 30.16 1021 10 16 0.00 0.00
4:52 pm 16:52 Mostly Cloudy 87 30.6 68 20 53 53 S 9 15 30.15 1021 10 16 0.00 0.00
5:52 pm 17:52 Mostly Cloudy 85 29.4 69 20.6 59 59 S 12 19 30.14 1021 10 16 0.00 0.00
6:52 pm 18:52 Mostly Cloudy 85 29.4 68 20 57 57 S 12 19 30.13 1020 10 16 0.00 0.00
7:52 pm 19:52 Mostly Cloudy 81 27.2 69 20.6 67 67 S 8 13 30.13 1020 10 16 0.00 0.00
8:52 pm 20:52 Mostly Cloudy 80 26.7 69 20.6 69 69 S 8 13 30.14 1021 10 16 0.00 0.00
9:52 pm 21:52 Mostly Cloudy 79 26.1 70 21.1 74 74 S 8 13 30.15 1021 10 16 0.00 0.00
10:52 pm 22:52 Mostly Cloudy 79 26.1 68 20 69 69 S 10 17 30.16 1021 10 16 0.00 0.00
11:52 pm 23:52 Mostly Cloudy 77 25 67 19.4 71 71 S 10 17 30.16 1021 10 16 0.00 0.00

Powered by AerisWeather